Terminal Aerodrome Forecast
Issued by NWS

Home | Current Version | Previous Version | Text Only | Print | Product List | Glossary Off
Versions: 1 2 3 4 5 6 7 8 9 10 11 12 13 14 15 16 17 18 19

607
FTUS43 KMPX 231530 AAA
TAFRNH
TAF AMD
KRNH 231530Z 2316/2412 11012G18KT P6SM SCT050 OVC120
     FM231700 11012G18KT 3SM TSRA BKN025CB OVC035
     FM231900 14011KT P6SM VCSH SCT040 BKN090
      TEMPO 2319/2322 3SM TSRA BKN035CB
     FM232200 15012G20KT P6SM BKN060
     FM240300 18011KT P6SM VCSH SCT030 BKN050
      TEMPO 2403/2405 2SM TSRA BKN020CB
     FM240600 21008KT P6SM BKN250=

USA.gov is the U.S. government's official web portal to all federal, state and local government web resources and services.